GW1310 Weather Reports


time (UTC)temp
C
wind
direction
speed
KPH
gust
KPH
rain 1hr
cm
rain 24hr
cm
rain mn
cm
humidity
%
barometer
mb
20260506094818 13 153 4.8 9.7 0.00 0.00 0.00 48 1016.3
20260506093818 12 169 4.8 8.0 0.00 0.00 0.00 50 1016.4
20260506092818 12 146 4.8 6.4 0.00 0.00 0.00 52 1016.3
20260506091838 12 184 1.6 4.8 0.00 0.00 0.00 53 1016.4
20260506090818 11 165 3.2 4.8 0.00 0.00 0.00 54 1016.5
20260506085818 11 142 3.2 4.8 0.00 0.00 0.00 58 1016.5
20260506084818 11 155 3.2 4.8 0.00 0.00 0.00 57 1016.6
20260506083838 11 23 3.2 6.4 0.00 0.00 0.00 59 1016.6
20260506082838 11 19 3.2 6.4 0.00 0.00 0.00 62 1016.6
20260506081818 11 322 1.6 4.8 0.00 0.00 0.00 66 1016.6
20260506080818 11 336 3.2 8.0 0.00 0.00 0.00 68 1016.7
20260506072818 10 327 3.2 9.7 0.00 0.00 0.00 75 1016.6
20260506071817 10 330 3.2 8.0 0.00 0.00 0.00 76 1016.5
20260506070817 10 338 4.8 11.3 0.00 0.00 0.00 76 1016.5
20260506061817 8 327 3.2 9.7 0.00 0.00 0.00 78 1016.5
20260506060817 8 327 4.8 9.7 0.00 0.00 0.00 78 1016.4
20260506050817 8 344 1.6 6.4 0.00 0.00 0.00 75 1016.4
20260506044817 8 322 3.2 9.7 0.00 0.00 0.00 76 1016.5
20260506043817 8 317 4.8 9.7 0.00 0.00 0.00 74 1016.6
20260506042857 8 1 1.6 6.4 0.00 0.00 0.00 73 1016.6
20260506041836 8 360 3.2 11.3 0.00 0.00 0.00 73 1016.6
20260506040817 8 318 4.8 14.5 0.00 0.00 0.00 73 1016.5
20260506035809 8 328 3.2 8.0 0.00 0.00 0.00 71 1016.6
20260506034849 8 331 3.2 11.3 0.00 0.00 0.00 72 1016.7
20260506033809 8 313 3.2 8.0 0.00 0.00 0.00 73 1016.7
20260506032809 8 305 1.6 6.4 0.00 0.00 0.00 70 1016.8
20260506031809 9 328 1.6 4.8 0.00 0.00 0.00 70 1016.8
20260506030829 9 337 4.8 11.3 0.00 0.00 0.00 69 1016.9
20260506025808 9 322 6.4 16.1 0.00 0.00 0.00 69 1016.9
20260506024808 9 323 6.4 14.5 0.00 0.00 0.00 70 1016.9
20260506023809 8 317 4.8 9.7 0.00 0.00 0.00 72 1017.0
20260506022833 8 318 4.8 9.7 0.00 0.00 0.00 72 1017.0
20260506021809 9 319 4.8 11.3 0.00 0.00 0.00 70 1017.1
20260506020808 9 320 4.8 11.3 0.00 0.00 0.00 70 1017.1
20260506015808 9 320 6.4 14.5 0.00 0.00 0.00 71 1017.1
20260506014813 9 327 4.8 11.3 0.00 0.00 0.00 71 1017.1
20260506013808 9 325 4.8 11.3 0.00 0.00 0.00 70 1017.2
20260506012809 9 316 4.8 11.3 0.00 0.00 0.00 70 1017.3
20260506011828 9 324 4.8 14.5 0.00 0.00 0.00 69 1017.3
20260506010808 9 319 4.8 12.9 0.00 0.00 0.00 67 1017.4
20260506005808 10 325 6.4 12.9 0.00 0.00 0.00 65 1017.5
20260506004808 10 320 4.8 9.7 0.00 0.00 0.00 64 1017.5
20260506003809 10 324 3.2 9.7 0.00 0.00 0.00 64 1017.6
20260506002808 10 332 4.8 11.3 0.00 0.00 0.00 64 1017.5
20260506001828 10 320 4.8 9.7 0.00 0.00 0.00 64 1017.6
20260506000808 10 358 1.6 4.8 0.00 0.00 0.00 63 1017.6
20260505235808 10 317 3.2 6.4 0.00 0.00 0.00 63 1017.7
20260505234808 10 316 4.8 12.9 0.00 0.00 0.00 62 1017.8
20260505233808 10 318 4.8 12.9 0.00 0.00 0.00 61 1017.8
20260505232828 10 314 4.8 9.7 0.00 0.00 0.00 62 1017.9
20260505231808 10 318 4.8 9.7 0.00 0.00 0.00 62 1017.9
20260505230808 10 328 1.6 4.8 0.00 0.00 0.00 61 1017.9
20260505225827 10 314 3.2 6.4 0.00 0.00 0.00 59 1018.0
20260505224808 10 334 4.8 11.3 0.00 0.00 0.00 59 1018.1
20260505223808 10 327 6.4 14.5 0.00 0.00 0.00 59 1018.1
20260505222808 10 320 6.4 14.5 0.00 0.00 0.00 59 1018.2
20260505221808 10 326 6.4 17.7 0.00 0.00 0.00 58 1018.1
20260505220807 10 312 6.4 16.1 0.00 0.00 0.00 59 1018.2
20260505215808 11 313 6.4 14.5 0.00 0.00 0.00 57 1018.3
20260505214807 11 310 6.4 11.3 0.00 0.00 0.00 56 1018.3
20260505213807 11 330 4.8 12.9 0.00 0.00 0.00 57 1018.3
20260505212827 11 347 4.8 12.9 0.00 0.00 0.00 58 1018.3
20260505211807 11 340 4.8 12.9 0.00 0.00 0.00 56 1018.4
20260505210807 11 301 3.2 4.8 0.00 0.00 0.00 57 1018.3
20260505205827 11 300 4.8 6.4 0.00 0.00 0.00 56 1018.4
20260505204807 11 272 1.6 6.4 0.00 0.00 0.00 57 1018.3
20260505203827 11 1 3.2 6.4 0.00 0.00 0.00 58 1018.2
20260505202807 11 349 4.8 16.1 0.00 0.00 0.00 57 1018.2
20260505201807 11 1 4.8 9.7 0.00 0.00 0.00 56 1018.2
20260505200807 11 352 6.4 19.3 0.00 0.00 0.00 54 1018.1
20260505195807 11 359 8.0 19.3 0.00 0.00 0.00 55 1018.1
20260505194807 12 359 9.7 22.5 0.00 0.00 0.00 54 1018.1
20260505193807 12 356 8.0 20.9 0.00 0.00 0.00 53 1018.1
20260505192807 12 358 9.7 19.3 0.00 0.00 0.00 54 1018.0
20260505191807 12 358 4.8 9.7 0.00 0.00 0.00 55 1018.0
20260505190807 12 349 3.2 8.0 0.00 0.00 0.00 55 1018.0
20260505185807 12 349 4.8 11.3 0.00 0.00 0.00 54 1018.0
20260505184827 12 350 3.2 9.7 0.00 0.00 0.00 54 1018.0
20260505183806 12 355 4.8 9.7 0.00 0.00 0.00 53 1017.9
20260505182817 12 19 6.4 9.7 0.00 0.00 0.00 53 1017.9
20260505181806 12 25 9.7 12.9 0.00 0.00 0.00 54 1017.9
20260505180806 12 306 4.8 11.3 0.00 0.00 0.00 58 1018.0
20260505175826 12 306 4.8 11.3 0.00 0.00 0.00 58 1017.9
20260505174806 12 294 8.0 12.9 0.00 0.00 0.00 57 1018.0
20260505173806 12 286 6.4 12.9 0.00 0.00 0.00 57 1018.0
20260505172826 12 293 8.0 17.7 0.00 0.00 0.00 57 1018.0
20260505171826 12 292 6.4 14.5 0.00 0.00 0.00 57 1018.1
20260505170806 12 297 8.0 16.1 0.00 0.00 0.00 55 1018.2
20260505165806 12 302 11.3 19.3 0.00 0.00 0.00 55 1018.1
20260505164806 12 291 11.3 20.9 0.00 0.00 0.00 54 1018.3
20260505163826 13 291 6.4 19.3 0.00 0.00 0.00 54 1018.3
20260505162806 12 293 6.4 16.1 0.00 0.00 0.00 54 1018.3
20260505161806 12 274 14.5 22.5 0.00 0.00 0.00 54 1018.2
20260505160806 12 289 11.3 22.5 0.00 0.00 0.00 53 1018.3
20260505152806 12 308 9.7 17.7 0.00 0.00 0.00 51 1018.4
20260505151806 12 307 9.7 17.7 0.00 0.00 0.00 51 1018.4
20260505150806 12 306 9.7 16.1 0.00 0.00 0.00 50 1018.5
20260505124809 12 316 8.0 20.9 0.00 0.00 0.00 54 1018.9
20260505123829 12 309 12.9 25.7 0.00 0.00 0.00 56 1019.0
20260505122809 12 320 12.9 29.0 0.00 0.00 0.00 52 1019.1
20260505121809 13 354 8.0 20.9 0.00 0.00 0.00 41 1019.0
20260505120809 13 328 4.8 14.5 0.00 0.00 0.00 45 1019.0
20260505115809 13 309 4.8 11.3 0.00 0.00 0.00 48 1019.1
20260505114809 13 332 4.8 12.9 0.00 0.00 0.00 47 1019.1
20260505113949 12 333 4.8 9.7 0.00 0.00 0.00 50 1019.2
20260505112809 12 359 8.0 16.1 0.00 0.00 0.00 50 1019.2
20260505111809 12 360 8.0 17.7 0.00 0.00 0.00 50 1019.2
20260505110829 12 342 6.4 16.1 0.00 0.00 0.00 54 1019.3